Weather in Kamenka

Russia / Lipetsk Oblast     52°22′47″N   38°45′53″E
temp.,
°C
wind,
m/s
gust,
m/s
humid.,
%
clouds,
%
prec.,
mm/h
press.,
hPa
HPBL,
m
13 may, thu
thu1300:00+8ese4119294 0.0 1018238
03:00+8ese41093100 0.0 1018249
06:00+10e5139299 0.0 1016400
09:00+13se5117699 0.0 1016891
12:00+11sw2592100 1.4 1016190
15:00+14s478422 6.4 1015543
18:00+16sse3578100 0.4 1015689
21:00+12ese22903 0.4 101612
14 may, fri
fri1400:00+11ese229290 0.0 101612
03:00+11e2292100 0.1 101714
06:00+12ese2593100 0.4 1016120
09:00+18se5878100 0.6 1015464
12:00+22se71063100 0.0 10151164
15:00+19s91378100 1.1 1015985
18:00+19se51180100 0.0 1012364
21:00+18se5128281 0.1 1011205
15 may, sat
sat1500:00+16se4129399 0.0 1010240
03:00+15sse389494 0.0 1010153
06:00+15s2494100 0.0 1011109
09:00+20ssw5776100 0.0 1011531
12:00+21ssw68631 0.0 10121028
15:00+22ssw710540 0.0 10121794
18:00+20ssw5965100 0.0 1012516
21:00+16ssw34805 0.1 101354
16 may, sun
sun1600:00+14sw33841 0.0 101443
03:00+13sw22875 0.0 101513
06:00+14ssw228411 0.0 101552
09:00+19s246575 0.0 1015495
12:00+22ssw35503 0.0 10152010
15:00+23ssw234571 0.0 10152034
18:00+23se125994 0.0 1014114
21:00+17nne336890 0.0 101420
17 may, mon
mon1700:00+16ne377280 0.0 1014125
03:00+14ene4108628 0.0 1014176
06:00+15ene4118847 0.0 1013256
09:00+21ese566872 0.0 1013382
12:00+25se685115 0.0 1011917
15:00+27ese68514 0.0 10111567
18:00+23ese511624 0.0 1010406
21:00+18ese412801 0.0 1010219